Flag for Germany Weather past 2 weeks in Hof (Saale), Bavaria, Germany

Now
63 °F

Overcast.


Feels Like: 63 °F
Forecast: 51 / 59 °F
Wind: 7 mph from West

Location: Hof

Current Time: Jul 28, 2015 at 4:24:02 PM

Latest Report: Jul 28, 2015 at 4:00 PM


Visibility: 34 mi

Pressure: 29.74 "Hg

Humidity: 45%

Dew point: 41 °F

Location of Hof (Saale)Location

Historic Weather in Hof (Saale) — Graph

°F

Hof (Saale) temperature yesterday

Maximum temperature yesterday: 63 °F (at 7:00 PM)
Minimum temperature yesterday: 54 °F (at 7:00 AM)
Average temperature yesterday: 58 °F

Past Weeks' High & Low Weather Summary

 TemperatureHumidityPressure
High89 °F (Jul 22, 3:00 PM)99% (Jul 23, 3:00 AM)30.12 "Hg (Jul 23, 3:00 AM)
Low49 °F (Jul 26, 7:00 AM)29% (Jul 17, 6:00 PM)29.62 "Hg (Jul 27, 2:00 PM)
Average67 °F68%29.91 "Hg
* Reported Jul 13 3:00 PM — Jul 28 3:00 PM, Hof (Saale), Weather by CustomWeather, © 2015

Note: Actual official high and low records may vary slightly from our data, if they occured in-between our weather recording intervals... More about our weather records

Advertising

Hof (Saale) weather history for previous 24 hours

 ConditionsComfort  
Time TempWeatherWind HumidityBarometerVisibility
3:00 PM
Tue, Jul 28
63 °FPartly sunny.10 mph47%29.74 "Hg18 mi
2:00 PM63 °FOvercast.7 mph55%29.73 "Hg28 mi
1:00 PM59 °FOvercast.7 mph65%29.74 "Hg28 mi
12:00 PM60 °FOvercast.7 mph75%29.75 "Hg28 mi
10:00 AM57 °FOvercast.7 mph80%29.75 "Hg25 mi
9:00 AM54 °FDrizzle. Low clouds.7 mph86%29.75 "Hg22 mi
8:00 AM57 °FOvercast.5 mph78%29.72 "Hg43 mi
7:00 AM57 °FOvercast.2 mph77%29.71 "Hg40 mi
6:00 AM55 °FScattered clouds.3 mph81%29.71 "Hg40 mi
5:00 AM57 °FPassing clouds.5 mph74%29.71 "Hg43 mi
4:00 AM56 °FClear.3 mph76%29.72 "Hg43 mi
3:00 AM57 °FPassing clouds.6 mph76%29.72 "Hg43 mi
2:00 AM57 °FClear.6 mph78%29.72 "Hg43 mi
1:00 AM55 °FPassing clouds.2 mph86%29.74 "Hg43 mi
10:00 PM
Mon, Jul 27
58 °FPassing clouds.2 mph81%29.73 "Hg43 mi
9:00 PM58 °FPassing clouds.3 mph84%29.72 "Hg37 mi
8:00 PM59 °FScattered clouds.7 mph79%29.71 "Hg43 mi
7:00 PM63 °FScattered clouds.8 mph61%29.67 "Hg43 mi
6:00 PM60 °FLight rain. Overcast.7 mph75%29.67 "Hg28 mi
5:00 PM63 °FPartly sunny.8 mph68%29.66 "Hg43 mi
4:00 PM62 °FScattered clouds.10 mph75%29.66 "Hg22 mi
Weather by CustomWeather, © 2015

See weather overviewHow to use our weather pages